HST

Last updated on Mon Nov 03 2025 00:02:16 GMT+0000 (Coordinated Universal Time)

1 20580U 90037B 25306.35384425 .00007204 00000+0 25387-3 0 9994 2 20580 28.4668 187.2184 0001915 134.9270 225.1481 15.27276544753814
UTC large
Height (km)
Speed (km/s)
/
Latitude / Longitude
Inclination (degrees)
Orbital Period (minutes)
Azimuth
Elevation
Range (km)
Doppler Factor

Next 0 passes for location: London (51.5072 / 0.1276)

Sorry there are no passes over London.